When you browse on this site, cookies collect data to enhance your experience and personalize the content and advertising you see.
Visit our Privacy Policy to learn more. By continuing to use the site, you agree to this use of cookies and data.
  • In Switzerland
  • List of Countries
  • For 7 days
  • Water Temperature
  • Satellite Maps
  • Weather Map
  • Weather Widgets
  • user-avatar
    Login

    Hourly Weather Lankaran

    Today, 23 May, Thursday

    Time Temperature Precipitation Wind Pressure Humidity
    00:00 +10°C° 0 mm 2 mps 633 mmHg 74%
    01:00 +10°C° 0 mm 2 mps 633 mmHg 73%
    02:00 +10°C° 0 mm 2 mps 633 mmHg 72%
    03:00 +9°C° 0 mm 2 mps 633 mmHg 71%
    04:00 +12°C° 0 mm 1 mps 633 mmHg 67%
    05:00 +13°C° 0 mm 1 mps 634 mmHg 62%
    06:00 +14°C° 0 mm 1 mps 634 mmHg 58%
    07:00 +16°C° 0 mm 1 mps 635 mmHg 55%
    08:00 +18°C° 0 mm 1 mps 635 mmHg 51%
    09:00 +19°C° 0 mm 2 mps 635 mmHg 48%
    10:00 +19°C° 0 mm 2 mps 635 mmHg 47%
    11:00 +20°C° 0 mm 2 mps 635 mmHg 46%
    12:00 +21°C° 0 mm 3 mps 635 mmHg 45%
    13:00 +21°C° 0 mm 3 mps 635 mmHg 45%
    14:00 +21°C° 0 mm 3 mps 634 mmHg 46%
    15:00 +21°C° 0 mm 3 mps 634 mmHg 46%
    16:00 +19°C° 0 mm 2 mps 633 mmHg 52%
    17:00 +18°C° 0 mm 2 mps 633 mmHg 58%
    18:00 +17°C° 0 mm 2 mps 632 mmHg 64%
    19:00 +16°C° 0.1 mm 1 mps 632 mmHg 69%
    20:00 +14°C° 0.1 mm 1 mps 632 mmHg 75%
    21:00 +13°C° 0.1 mm 1 mps 632 mmHg 80%
    22:00 +13°C° 0 mm 1 mps 632 mmHg 80%
    23:00 +13°C° 0 mm 1 mps 632 mmHg 81%

    Tomorrow, 24 May, Friday

    Time Temperature Precipitation Wind Pressure Humidity
    00:00 +13°C° 0 mm 1 mps 632 mmHg 81%
    01:00 +12°C° 0 mm 1 mps 632 mmHg 81%
    02:00 +12°C° 0 mm 1 mps 632 mmHg 81%
    03:00 +12°C° 0 mm 1 mps 632 mmHg 81%
    04:00 +13°C° 0 mm 1 mps 633 mmHg 77%
    05:00 +14°C° 0 mm 1 mps 633 mmHg 72%
    06:00 +15°C° 0 mm 1 mps 634 mmHg 68%
    07:00 +18°C° 0 mm 1 mps 634 mmHg 63%
    08:00 +18°C° 0 mm 2 mps 635 mmHg 58%
    09:00 +19°C° 0 mm 2 mps 636 mmHg 53%
    10:00 +20°C° 0 mm 2 mps 636 mmHg 51%
    11:00 +21°C° 0 mm 2 mps 636 mmHg 49%
    12:00 +22°C° 0 mm 3 mps 636 mmHg 47%
    13:00 +21°C° 0 mm 3 mps 636 mmHg 48%
    14:00 +21°C° 0 mm 3 mps 635 mmHg 50%
    15:00 +21°C° 0 mm 3 mps 635 mmHg 52%
    16:00 +20°C° 0.1 mm 2 mps 635 mmHg 60%
    17:00 +18°C° 0.1 mm 2 mps 634 mmHg 68%
    18:00 +17°C° 0.1 mm 2 mps 634 mmHg 76%
    19:00 +16°C° 0.1 mm 2 mps 634 mmHg 79%
    20:00 +15°C° 0.1 mm 1 mps 634 mmHg 83%
    21:00 +14°C° 0.1 mm 1 mps 634 mmHg 86%
    22:00 +13°C° 0 mm 1 mps 634 mmHg 88%
    23:00 +13°C° 0 mm 1 mps 634 mmHg 89%

    Day after tomorrow, 25 May, Saturday

    Time Temperature Precipitation Wind Pressure Humidity
    00:00 +12°C° 0 mm 1 mps 634 mmHg 91%
    01:00 +13°C° 0 mm 1 mps 634 mmHg 87%
    02:00 +13°C° 0 mm 1 mps 634 mmHg 84%
    03:00 +13°C° 0 mm 2 mps 634 mmHg 81%
    04:00 +15°C° 0 mm 1 mps 634 mmHg 74%
    05:00 +16°C° 0 mm 1 mps 635 mmHg 68%
    06:00 +18°C° 0 mm 1 mps 636 mmHg 61%
    07:00 +20°C° 0 mm 1 mps 636 mmHg 53%
    08:00 +21°C° 0 mm 2 mps 637 mmHg 46%
    09:00 +24°C° 0 mm 2 mps 638 mmHg 38%
    10:00 +25°C° 0 mm 2 mps 638 mmHg 35%
    11:00 +27°C° 0 mm 2 mps 637 mmHg 32%
    12:00 +28°C° 0 mm 2 mps 637 mmHg 29%
    13:00 +28°C° 0 mm 2 mps 637 mmHg 29%
    14:00 +28°C° 0 mm 2 mps 637 mmHg 30%
    15:00 +28°C° 0 mm 2 mps 636 mmHg 30%
    16:00 +26°C° 0.1 mm 2 mps 635 mmHg 34%
    17:00 +24°C° 0.1 mm 3 mps 635 mmHg 38%
    18:00 +21°C° 0.1 mm 3 mps 634 mmHg 42%
    19:00 +21°C° 0.1 mm 3 mps 634 mmHg 40%
    20:00 +20°C° 0.1 mm 3 mps 634 mmHg 37%
    21:00 +19°C° 0.1 mm 3 mps 634 mmHg 35%
    22:00 +19°C° 0 mm 3 mps 634 mmHg 34%
    23:00 +19°C° 0 mm 3 mps 633 mmHg 33%

    26 May, Sunday

    Time Temperature Precipitation Wind Pressure Humidity
    00:00 +19°C° 0 mm 4 mps 633 mmHg 31%
    01:00 +19°C° 0 mm 4 mps 633 mmHg 31%
    02:00 +19°C° 0 mm 4 mps 633 mmHg 30%
    03:00 +20°C° 0 mm 4 mps 633 mmHg 29%
    04:00 +20°C° 0 mm 4 mps 634 mmHg 32%
    05:00 +20°C° 0 mm 4 mps 634 mmHg 35%
    06:00 +20°C° 0 mm 3 mps 634 mmHg 38%
    07:00 +21°C° 0 mm 3 mps 635 mmHg 35%
    08:00 +24°C° 0 mm 3 mps 636 mmHg 33%
    09:00 +26°C° 0 mm 3 mps 636 mmHg 30%
    10:00 +27°C° 0 mm 3 mps 636 mmHg 30%
    11:00 +27°C° 0 mm 3 mps 636 mmHg 30%
    12:00 +27°C° 0 mm 3 mps 636 mmHg 31%
    13:00 +27°C° 0 mm 2 mps 636 mmHg 33%
    14:00 +26°C° 0 mm 2 mps 635 mmHg 36%
    15:00 +26°C° 0 mm 2 mps 635 mmHg 38%
    16:00 +24°C° 0.1 mm 2 mps 634 mmHg 46%
    17:00 +21°C° 0.1 mm 2 mps 634 mmHg 53%
    18:00 +19°C° 0.1 mm 2 mps 633 mmHg 61%
    19:00 +18°C° 0 mm 2 mps 633 mmHg 61%
    20:00 +17°C° 0 mm 2 mps 633 mmHg 62%
    21:00 +16°C° 0 mm 1 mps 633 mmHg 62%
    22:00 +15°C° 0 mm 1 mps 633 mmHg 64%
    23:00 +14°C° 0 mm 1 mps 633 mmHg 65%

    27 May, Monday

    Time Temperature Precipitation Wind Pressure Humidity
    00:00 +14°C° 0 mm 1 mps 633 mmHg 66%
    01:00 +13°C° 0 mm 1 mps 633 mmHg 70%
    02:00 +13°C° 0 mm 1 mps 633 mmHg 74%
    03:00 +12°C° 0 mm 1 mps 633 mmHg 77%
    04:00 +13°C° 0 mm 1 mps 634 mmHg 76%
    05:00 +14°C° 0 mm 1 mps 634 mmHg 74%
    06:00 +15°C° 0 mm 1 mps 635 mmHg 72%
    07:00 +16°C° 0 mm 2 mps 636 mmHg 67%
    08:00 +18°C° 0 mm 3 mps 637 mmHg 62%
    09:00 +20°C° 0 mm 3 mps 637 mmHg 57%
    10:00 +20°C° 0 mm 4 mps 637 mmHg 57%
    11:00 +20°C° 0 mm 4 mps 637 mmHg 56%
    12:00 +21°C° 0 mm 4 mps 637 mmHg 56%
    13:00 +20°C° 0 mm 4 mps 637 mmHg 58%
    14:00 +19°C° 0 mm 4 mps 636 mmHg 60%
    15:00 +19°C° 0 mm 5 mps 636 mmHg 62%
    16:00 +18°C° 0.2 mm 4 mps 636 mmHg 64%
    17:00 +17°C° 0.2 mm 3 mps 636 mmHg 66%
    18:00 +16°C° 0.2 mm 3 mps 636 mmHg 68%
    19:00 +15°C° 0.2 mm 2 mps 636 mmHg 71%
    20:00 +13°C° 0.2 mm 1 mps 636 mmHg 75%
    21:00 +12°C° 0.2 mm 1 mps 636 mmHg 79%
    22:00 +12°C° 0 mm 1 mps 636 mmHg 79%
    23:00 +12°C° 0 mm 1 mps 636 mmHg 78%

    28 May, Tuesday

    Time Temperature Precipitation Wind Pressure Humidity
    00:00 +11°C° 0 mm 1 mps 636 mmHg 77%
    01:00 +11°C° 0 mm 1 mps 636 mmHg 77%
    02:00 +11°C° 0 mm 1 mps 636 mmHg 77%
    03:00 +11°C° 0 mm 1 mps 636 mmHg 76%
    04:00 +12°C° 0 mm 1 mps 637 mmHg 73%
    05:00 +13°C° 0 mm 1 mps 638 mmHg 69%
    06:00 +14°C° 0 mm 1 mps 639 mmHg 66%
    07:00 +16°C° 0 mm 2 mps 639 mmHg 60%
    08:00 +17°C° 0 mm 2 mps 640 mmHg 54%
    09:00 +19°C° 0 mm 3 mps 640 mmHg 48%
    10:00 +19°C° 0 mm 3 mps 640 mmHg 46%
    11:00 +20°C° 0 mm 4 mps 640 mmHg 44%
    12:00 +21°C° 0 mm 4 mps 640 mmHg 42%
    13:00 +21°C° 0 mm 4 mps 640 mmHg 42%
    14:00 +21°C° 0 mm 4 mps 640 mmHg 43%
    15:00 +21°C° 0 mm 4 mps 639 mmHg 43%
    16:00 +20°C° 0 mm 3 mps 639 mmHg 47%
    17:00 +18°C° 0 mm 3 mps 639 mmHg 52%
    18:00 +17°C° 0 mm 2 mps 638 mmHg 56%
    19:00 +16°C° 0 mm 2 mps 638 mmHg 61%
    20:00 +14°C° 0 mm 1 mps 638 mmHg 67%
    21:00 +12°C° 0 mm 1 mps 637 mmHg 73%
    22:00 +12°C° 0 mm 1 mps 637 mmHg 71%
    23:00 +12°C° 0 mm 1 mps 637 mmHg 69%
    Show more